| time (UTC) | temp F | wind direction | speed MPH | gust MPH | rain 1hr in | rain 24hr in | rain mn in | humidity % | barometer mb |
| 20260509151555 | 58 | 275 | 5.0 | 10.0 | 0.00 | 0.00 | 0.00 | 6 | 1006.1 |
| 20260509150044 | 57 | 248 | 4.0 | 12.0 | 0.00 | 0.00 | 0.00 | 1 | 1006.2 |
| 20260509144550 | 57 | 276 | 5.0 | 9.0 | 0.00 | 0.00 | 0.00 | 100 | 1006.2 |
| 20260509143034 | 56 | 265 | 4.0 | 10.0 | 0.00 | 0.00 | 0.00 | 100 | 1006.1 |
| 20260509141532 | 55 | 259 | 3.0 | 7.0 | 0.00 | 0.00 | 0.00 | 100 | 1006.1 |
| 20260509140026 | 55 | 287 | 2.0 | 10.0 | 0.00 | 0.00 | 0.00 | 100 | 1006.1 |
| 20260509134538 | 55 | 290 | 3.0 | 9.0 | 0.00 | 0.00 | 0.00 | 100 | 1006.2 |
| 20260509133020 | 54 | 278 | 2.0 | 4.0 | 0.00 | 0.00 | 0.00 | 100 | 1006.2 |
| 20260509131514 | 53 | 283 | 2.0 | 7.0 | 0.00 | 0.00 | 0.00 | 100 | 1006.3 |
| 20260509130007 | 53 | 266 | 4.0 | 9.0 | 0.00 | 0.00 | 0.00 | 100 | 1006.4 |
| 20260509124505 | 53 | 275 | 3.0 | 7.0 | 0.00 | 0.00 | 0.00 | 100 | 1006.4 |
| 20260509123131 | 52 | 269 | 3.0 | 8.0 | 0.00 | 0.00 | 0.00 | 100 | 1006.6 |
| 20260509121611 | 52 | 260 | 4.0 | 9.0 | 0.00 | 0.00 | 0.00 | 100 | 1006.8 |
| 20260509120054 | 51 | 240 | 3.0 | 6.0 | 0.00 | 0.00 | 0.00 | 100 | 1007.0 |
| 20260509114545 | 51 | 245 | 4.0 | 8.0 | 0.00 | 0.00 | 0.00 | 100 | 1006.8 |
| 20260509113041 | 51 | 244 | 3.0 | 10.0 | 0.00 | 0.00 | 0.00 | 100 | 1006.8 |
| 20260509111551 | 51 | 236 | 2.0 | 7.0 | 0.00 | 0.00 | 0.00 | 100 | 1006.8 |
| 20260509110034 | 51 | 240 | 3.0 | 6.0 | 0.00 | 0.00 | 0.00 | 100 | 1006.8 |
| 20260509104539 | 51 | 251 | 2.0 | 7.0 | 0.00 | 0.00 | 0.00 | 100 | 1006.8 |
| 20260509103023 | 51 | 232 | 3.0 | 6.0 | 0.00 | 0.00 | 0.00 | 100 | 1006.8 |
| 20260509101524 | 51 | 242 | 2.0 | 7.0 | 0.00 | 0.00 | 0.00 | 100 | 1006.8 |
| 20260509100014 | 51 | 236 | 3.0 | 6.0 | 0.00 | 0.00 | 0.00 | 100 | 1006.8 |
| 20260509094520 | 51 | 249 | 3.0 | 7.0 | 0.00 | 0.00 | 0.00 | 100 | 1006.9 |
| 20260509093005 | 51 | 249 | 3.0 | 8.0 | 0.00 | 0.00 | 0.00 | 100 | 1007.0 |
| 20260509091501 | 50 | 263 | 1.0 | 4.0 | 0.00 | 0.00 | 0.00 | 100 | 1007.0 |
| 20260509084553 | 51 | 263 | 3.0 | 6.0 | 0.00 | 0.00 | 0.00 | 100 | 1007.3 |
| 20260509083048 | 51 | 274 | 2.0 | 6.0 | 0.00 | 0.00 | 0.00 | 100 | 1007.2 |
| 20260509081546 | 51 | 228 | 1.0 | 6.0 | 0.00 | 0.00 | 0.00 | 100 | 1007.3 |
| 20260509080039 | 51 | 264 | 3.0 | 6.0 | 0.00 | 0.00 | 0.00 | 100 | 1007.3 |
| 20260509074544 | 51 | 265 | 2.0 | 7.0 | 0.00 | 0.00 | 0.00 | 100 | 1007.3 |
| 20260509073030 | 51 | 270 | 2.0 | 5.0 | 0.00 | 0.00 | 0.00 | 100 | 1007.4 |
| 20260509071527 | 51 | 277 | 2.0 | 5.0 | 0.00 | 0.00 | 0.00 | 100 | 1007.5 |
| 20260509070022 | 51 | 244 | 2.0 | 6.0 | 0.00 | 0.00 | 0.00 | 100 | 1007.5 |
| 20260509064517 | 51 | 265 | 2.0 | 6.0 | 0.00 | 0.00 | 0.00 | 100 | 1007.6 |
| 20260509063022 | 51 | 267 | 3.0 | 5.0 | 0.00 | 0.00 | 0.00 | 100 | 1007.8 |
| 20260509061510 | 51 | 271 | 2.0 | 5.0 | 0.00 | 0.00 | 0.00 | 100 | 1007.9 |
| 20260509060005 | 50 | 251 | 2.0 | 6.0 | 0.00 | 0.00 | 0.00 | 100 | 1008.0 |
| 20260509054604 | 50 | 243 | 2.0 | 6.0 | 0.00 | 0.00 | 0.00 | 100 | 1008.2 |
| 20260509053105 | 50 | 231 | 1.0 | 5.0 | 0.00 | 0.00 | 0.00 | 100 | 1008.4 |
| 20260509051553 | 50 | 247 | 3.0 | 6.0 | 0.00 | 0.00 | 0.00 | 100 | 1008.6 |
| 20260509050048 | 50 | 242 | 3.0 | 7.0 | 0.00 | 0.00 | 0.00 | 100 | 1008.8 |
| 20260509044542 | 50 | 245 | 2.0 | 7.0 | 0.00 | 0.00 | 0.00 | 100 | 1008.9 |
| 20260509043039 | 50 | 236 | 4.0 | 7.0 | 0.00 | 0.00 | 0.00 | 100 | 1008.9 |
| 20260509041605 | 50 | 244 | 1.0 | 6.0 | 0.00 | 0.00 | 0.00 | 100 | 1009.2 |
| 20260509040032 | 50 | 275 | 3.0 | 6.0 | 0.00 | 0.00 | 0.00 | 100 | 1009.3 |
| 20260509034524 | 50 | 245 | 3.0 | 5.0 | 0.00 | 0.00 | 0.00 | 100 | 1009.4 |
| 20260509033020 | 50 | 236 | 3.0 | 6.0 | 0.00 | 0.00 | 0.00 | 100 | 1009.6 |
| 20260509031516 | 50 | 221 | 5.0 | 9.0 | 0.00 | 0.00 | 0.00 | 100 | 1009.7 |
| 20260509030012 | 51 | 222 | 2.0 | 5.0 | 0.00 | 0.00 | 0.00 | 100 | 1009.8 |
| 20260509024508 | 51 | 258 | 2.0 | 5.0 | 0.00 | 0.00 | 0.00 | 100 | 1009.9 |
| 20260509023004 | 51 | 269 | 2.0 | 6.0 | 0.00 | 0.00 | 0.00 | 100 | 1010.0 |
| 20260509021559 | 52 | 265 | 3.0 | 8.0 | 0.00 | 0.00 | 0.00 | 2 | 1010.0 |
| 20260509020059 | 52 | 292 | 2.0 | 8.0 | 0.00 | 0.00 | 0.00 | 14 | 1009.9 |
| 20260509014550 | 53 | 255 | 2.0 | 5.0 | 0.00 | 0.00 | 0.00 | 24 | 1009.9 |
| 20260509013051 | 52 | 210 | 1.0 | 4.0 | 0.00 | 0.00 | 0.00 | 31 | 1009.9 |
| 20260509011542 | 52 | 200 | 0.0 | 2.0 | 0.00 | 0.00 | 0.00 | 33 | 1009.6 |
| 20260509010040 | 52 | 207 | 0.0 | 2.0 | 0.00 | 0.00 | 0.00 | 31 | 1009.4 |
| 20260509004534 | 53 | 209 | 0.0 | 2.0 | 0.00 | 0.00 | 0.00 | 39 | 1009.3 |
| 20260509003028 | 53 | 240 | 0.0 | 2.0 | 0.00 | 0.00 | 0.00 | 39 | 1009.3 |
| 20260509001524 | 54 | 256 | 1.0 | 2.0 | 0.00 | 0.00 | 0.00 | 45 | 1009.3 |
| 20260509000019 | 54 | 263 | 0.0 | 2.0 | 0.00 | 0.00 | 0.00 | 47 | 1009.3 |
| 20260508234514 | 54 | 305 | 0.0 | 2.0 | 0.00 | 0.00 | 0.00 | 55 | 1009.3 |
| 20260508233010 | 55 | 306 | 0.0 | 2.0 | 0.00 | 0.00 | 0.00 | 56 | 1009.4 |
| 20260508231506 | 55 | 307 | 1.0 | 3.0 | 0.00 | 0.00 | 0.00 | 56 | 1009.5 |
| 20260508230001 | 55 | 340 | 1.0 | 3.0 | 0.00 | 0.00 | 0.00 | 56 | 1009.4 |
| 20260508224557 | 55 | 5 | 2.0 | 4.0 | 0.00 | 0.00 | 0.00 | 57 | 1009.6 |
| 20260508223053 | 55 | 14 | 1.0 | 5.0 | 0.00 | 0.00 | 0.00 | 57 | 1009.6 |
| 20260508221548 | 55 | 349 | 2.0 | 4.0 | 0.00 | 0.00 | 0.00 | 57 | 1009.6 |
| 20260508220045 | 55 | 18 | 3.0 | 8.0 | 0.00 | 0.00 | 0.00 | 57 | 1009.6 |
| 20260508214540 | 55 | 34 | 1.0 | 5.0 | 0.00 | 0.00 | 0.00 | 57 | 1009.6 |
| 20260508213040 | 56 | 71 | 2.0 | 8.0 | 0.00 | 0.00 | 0.00 | 57 | 1009.6 |
| 20260508211537 | 55 | 26 | 3.0 | 7.0 | 0.00 | 0.00 | 0.00 | 57 | 1009.7 |
| 20260508210027 | 56 | 90 | 3.0 | 9.0 | 0.00 | 0.00 | 0.00 | 57 | 1009.7 |
| 20260508204522 | 55 | 59 | 3.0 | 10.0 | 0.00 | 0.00 | 0.00 | 57 | 1009.8 |
| 20260508203018 | 56 | 48 | 4.0 | 13.0 | 0.00 | 0.00 | 0.00 | 57 | 1009.7 |
| 20260508201516 | 56 | 72 | 4.0 | 8.0 | 0.00 | 0.00 | 0.00 | 57 | 1009.8 |
| 20260508200012 | 56 | 47 | 4.0 | 8.0 | 0.00 | 0.00 | 0.00 | 57 | 1010.0 |
| 20260508194512 | 57 | 76 | 5.0 | 11.0 | 0.00 | 0.00 | 0.00 | 56 | 1010.0 |
| 20260508193151 | 56 | 88 | 6.0 | 12.0 | 0.00 | 0.00 | 0.00 | 57 | 1010.3 |
| 20260508191602 | 57 | 71 | 3.0 | 9.0 | 0.00 | 0.00 | 0.00 | 56 | 1010.3 |
| 20260508190054 | 57 | 69 | 6.0 | 11.0 | 0.00 | 0.00 | 0.00 | 56 | 1010.5 |
| 20260508184549 | 57 | 32 | 5.0 | 8.0 | 0.00 | 0.00 | 0.00 | 56 | 1010.7 |
| 20260508183101 | 56 | 348 | 4.0 | 10.0 | 0.00 | 0.00 | 0.00 | 56 | 1010.9 |
| 20260508181546 | 55 | 58 | 2.0 | 7.0 | 0.00 | 0.00 | 0.00 | 56 | 1011.0 |
| 20260508180036 | 55 | 38 | 3.0 | 8.0 | 0.00 | 0.00 | 0.00 | 56 | 1011.2 |
| 20260508174530 | 55 | 96 | 2.0 | 8.0 | 0.00 | 0.00 | 0.00 | 57 | 1011.3 |
| 20260508173025 | 56 | 92 | 4.0 | 9.0 | 0.00 | 0.00 | 0.00 | 55 | 1011.4 |
| 20260508171521 | 56 | 5 | 4.0 | 8.0 | 0.00 | 0.00 | 0.00 | 55 | 1011.4 |
| 20260508170017 | 55 | 198 | 0.0 | 5.0 | 0.00 | 0.00 | 0.00 | 56 | 1011.5 |
| 20260508164514 | 54 | 40 | 1.0 | 5.0 | 0.00 | 0.00 | 0.00 | 55 | 1011.9 |
| 20260508163013 | 53 | 69 | 1.0 | 5.0 | 0.00 | 0.00 | 0.00 | 55 | 1012.0 |
| 20260508161509 | 54 | 24 | 2.0 | 4.0 | 0.00 | 0.00 | 0.00 | 55 | 1012.0 |
| 20260508160100 | 53 | 166 | 3.0 | 8.0 | 0.00 | 0.00 | 0.00 | 50 | 1012.2 |
| 20260508154614 | 52 | 140 | 2.0 | 6.0 | 0.00 | 0.00 | 0.00 | 49 | 1012.4 |
| 20260508153051 | 51 | 19 | 2.0 | 5.0 | 0.00 | 0.00 | 0.00 | 50 | 1012.5 |